Home   Weather   Incheon   Past weeks

Flag for South Korea Past Weather in Incheon, South Korea — Yesterday and Last 2 Weeks

Now
39 °F

Sunny.


Feels Like: 37 °F
Forecast: 26 / 41 °F
Wind: 3 mph from Southeast

Location: Incheon International Airport

Current Time: Dec 11, 2016 at 3:18:21 pm

Latest Report: Dec 11, 2016 at 2:30 pm


Visibility: 10 mi

Pressure: 30.36 "Hg

Humidity: 28%

Dew Point: 9 °F

Location of IncheonLocation

Past Weather in Incheon — Graph

°F

Incheon Temperature Yesterday

Maximum temperature yesterday: 36 °F (at 12:30 pm)
Minimum temperature yesterday: 25 °F (at 7:30 am)
Average temperature yesterday: 31 °F

High & Low Weather Summary for the Past Weeks

 TemperatureHumidityPressure
High52 °F (Dec 5, 10:30 am)93% (Nov 26, 2:00 pm)30.57 "Hg (Nov 26, 2:00 pm)
Low25 °F (Dec 10, 7:30 am)23% (Dec 6, 1:00 pm)29.89 "Hg (Dec 8, 11:00 pm)
Average39 °F64%30.26 "Hg
* Reported Nov 26 2:00 pm — Dec 11 2:00 pm, Incheon, Weather by CustomWeather, © 2016

Note: Actual official high and low records may vary slightly from our data, if they occured in-between our weather recording intervals... More about our weather records

Advertising

Incheon Weather History for the Previous 24 Hours

Scroll right to see more
 ConditionsComfort  
Time TempWeatherWind HumidityBarometerVisibility
2:00 pm
Sun, Dec 11
39 °FSunny.3 mph28%30.36 "Hg10 mi
1:30 pm39 °FSunny.2 mph28%30.36 "Hg10 mi
1:00 pm37 °FPassing clouds.3 mph30%30.39 "HgN/A
12:30 pm37 °FPassing clouds.3 mph33%30.39 "HgN/A
12:00 pm36 °FPassing clouds.5 mph25%30.42 "HgN/A
11:30 am36 °FSunny.6 mph35%30.42 "Hg10 mi
11:00 am34 °FSunny.8 mph38%30.42 "Hg10 mi
10:30 am32 °FSunny.8 mph44%30.45 "Hg10 mi
10:00 am32 °FSunny.8 mph44%30.45 "Hg10 mi
9:30 am30 °FSunny.8 mph47%30.45 "Hg10 mi
9:00 am28 °FSunny.6 mph59%30.45 "Hg10 mi
8:30 am27 °FClear.5 mph64%30.42 "Hg10 mi
8:00 am25 °FPassing clouds.3 mph63%30.42 "HgN/A
7:30 am25 °FClear.6 mph63%30.39 "Hg10 mi
7:00 am27 °FClear.3 mph59%30.42 "Hg10 mi
6:30 am27 °FClear.5 mph54%30.39 "Hg10 mi
6:00 am25 °FClear.5 mph63%30.39 "Hg10 mi
5:30 am25 °FClear.7 mph63%30.39 "Hg10 mi
5:00 am28 °FClear.2 mph55%30.39 "Hg10 mi
4:30 am28 °FClear.6 mph51%30.39 "Hg10 mi
4:00 am28 °FClear.7 mph51%30.39 "Hg10 mi
3:30 am25 °FClear.3 mph59%30.39 "Hg10 mi
3:00 am27 °FClear.2 mph54%30.39 "Hg10 mi
2:30 am30 °FClear.1 mph47%30.39 "Hg10 mi
2:00 am30 °FClear.10 mph47%30.39 "Hg10 mi
1:30 am30 °FClear.9 mph51%30.39 "Hg10 mi
1:00 am30 °FClear.2 mph47%30.39 "Hg10 mi
12:30 am30 °FClear.12 mph47%30.39 "Hg10 mi
12:00 am30 °FClear.15 mph47%30.39 "Hg10 mi
11:30 pm
Sat, Dec 10
30 °FClear.15 mph47%30.36 "Hg10 mi
11:00 pm30 °FClear.10 mph47%30.39 "Hg10 mi
10:30 pm32 °FClear.9 mph40%30.39 "Hg10 mi
10:00 pm32 °FClear.13 mph40%30.36 "Hg10 mi
9:30 pm32 °FClear.12 mph40%30.36 "Hg10 mi
9:00 pm32 °FClear.12 mph34%30.36 "Hg10 mi
8:30 pm32 °FClear.7 mph44%30.36 "Hg10 mi
8:00 pm30 °FClear.9 mph51%30.36 "Hg10 mi
7:30 pm30 °FClear.7 mph51%30.36 "Hg10 mi
7:00 pm34 °FClear.12 mph44%30.36 "Hg10 mi
6:30 pm34 °FClear.12 mph44%30.33 "Hg10 mi
6:00 pm32 °FPassing clouds.3 mph55%30.33 "HgN/A
5:30 pm34 °FSunny.3 mph51%30.33 "Hg10 mi
5:00 pm34 °FSunny.6 mph48%30.33 "Hg10 mi
4:30 pm36 °FSunny.10 mph44%30.33 "Hg10 mi
4:00 pm36 °FSunny.10 mph44%30.33 "Hg10 mi
3:30 pm36 °FSunny.12 mph38%30.33 "Hg10 mi
3:00 pm36 °FPassing clouds.8 mph35%30.33 "HgN/A
Weather by CustomWeather, © 2016

See weather overviewHow to use our weather pages